Location: Ajisawe
(8.4333°N, 4.3833°E)
Time: 01:16:23
(UTC+00:00)

Vanguard 2 Rocket - Visible Passes

Search period start: 21 April 2021 00:00
Search period end: 01 May 2021 00:00
Orbit: 553 x 3326 km, 32.9° (Epoch: 20 April)

Date Brightness Start Highest point End Pass type
(mag) Time Alt. Az. Time Alt. Az. Time Alt. Az.
21 Apr 9.3 18:18:22 10° NW 18:35:26 49° NNE 18:44:38 15° E visible
21 Apr 8.4 20:38:04 10° WNW 20:50:27 62° WSW 20:50:27 62° WSW visible
22 Apr 8.1 19:35:02 10° NW 19:51:17 86° NE 19:54:20 55° ESE visible
22 Apr 10.0 21:56:48 10° W 22:00:08 17° W 22:00:08 17° W visible
23 Apr 8.9 18:32:04 10° NW 18:50:02 66° NNE 18:58:14 22° ESE visible
23 Apr 8.9 20:52:41 10° WNW 21:04:03 42° WSW 21:04:03 42° WSW visible
24 Apr 8.4 19:49:07 10° WNW 20:05:05 67° SW 20:07:58 52° SSE visible
25 Apr 8.8 18:45:52 10° NW 19:04:11 89° NNE 19:11:53 25° SE visible
25 Apr 9.5 21:08:14 10° W 21:17:43 26° SW 21:17:43 26° SW visible
26 Apr 9.3 17:42:55 10° NW 18:02:32 70° NNE 18:14:58 10° ESE visible
26 Apr 8.9 20:03:46 10° WNW 20:18:34 45° SW 20:21:39 38° S visible
27 Apr 9.0 18:59:59 10° WNW 19:17:56 67° SW 19:25:36 25° SE visible
27 Apr 10.0 21:25:28 10° WSW 21:31:25 16° SW 21:31:25 16° SW visible
28 Apr 9.2 17:56:44 10° NW 18:16:36 88° SW 18:29:08 10° SE visible
28 Apr 9.4 20:19:19 10° W 20:31:56 29° SW 20:35:23 25° SSW visible
29 Apr 9.4 19:14:39 10° WNW 19:31:24 47° SW 19:39:20 21° SSE visible
30 Apr 9.5 18:10:53 10° WNW 18:30:18 66° SW 18:42:50 10° SE visible
30 Apr 9.9 20:36:23 10° W 20:45:27 18° SW 20:49:06 16° SSW visible
